Погода в Аниве

Россия / Сахалинская область     46°42′47″N   142°31′35″E
темп.,
°C
ветер,
м/с
пор.,
м/с
влажн.,
%
обл.,
%
осадки,
мм/ч
давл.,
гПа
погр.,
м
23 октября, сб
сб2323:00+1с3387100 0.2 101771
02:000ссз22795 0.0 101661
05:000ссз22790 0.0 101666
08:000сз22802 0.0 101661
11:00+5зсз23650 0.0 1016361
14:00+8зюз45485 0.0 10151493
17:00+7з57615 0.0 1015983
20:00+3з34731 0.0 1016116
24 октября, вс
вс2423:00+2зсз23801 0.0 101670
02:00+2сз12845 0.0 101548
05:00+3зсз11862 0.0 101448
08:00+4з23860 0.0 101464
11:00+11з610660 0.0 10131078
14:00+12зсз811560 0.0 1013942
17:00+10сз69640 0.0 1015589
20:00+5зсз34790 0.0 101882
25 октября, пн
пн2523:00+4сз22750 0.0 102144
02:00+3ссз11710 0.0 102245
05:00+3с10680 0.0 102251
08:00+3ссв01680 0.0 102361
11:00+8юв13660 0.0 1022243
14:00+11ююв45761 0.0 1020535
17:00+12ююз35770 0.0 1019177
20:00+7зюз23870 0.0 102160
26 октября, вт
вт2623:00+6зюз12870 0.0 102054
02:00+5юз12880 0.0 102050
05:00+5юз11890 0.0 102049
08:00+5зсз11900 0.0 102031
11:00+11юз38815 0.0 1020434
14:00+13юз586113 0.0 1018892
17:00+12юз47718 0.0 1017286
20:00+8юз22890 0.0 101830
27 октября, ср
ср2723:00+7зюз11910 0.0 101830
02:00+6зюз11910 0.0 101735
05:00+6з11918 0.0 101638
08:00+6ю0191100 0.0 101534
11:00+10ююз2586100 0.0 1015267
14:00+12ююз4780100 0.1 1013589
17:00+11ююз4884100 0.2 1012296
20:00+9ю41087100 0.3 1013328